Location: Usti nad Labem
(50.6670°N, 14.0330°E)
Time: 22:39:56
(UTC+01:00)

Envisat - Pass Details

Date: 05 December 2020
Orbit: 764 x 766 km, 98.1° (Epoch: 15 January)

Event Time Altitude Azimuth Distance (km) Brightness Sun altitude
Rises 07:07:12 0° 8° (N) 3,247 6.0 -6.5°
Reaches altitude 10° 07:09:41 10° 359° (N) 2,316 5.2 -6.1°
Maximum altitude 07:14:14 34° 296° (WNW) 1,246 3.6 -5.5°
Drops below altitude 10° 07:18:46 10° 233° (SW) 2,300 5.3 -4.9°
Sets 07:21:14 0° 224° (SW) 3,222 6.1 -4.5°
